[[{"header":{"parameterUnit":"m.s-1","parameterCategory":1,"la1":30.2991,"la2":30.254,"lo1":-89.0895,"lo2":-89.0444,"dy":0.0017,"dx":0.0017,"nx":28,"ny":28,"refTime":"2023-09-14T03:00:00:Z","depth":0,"parameterNumber":2,"parameterNumberName":"U-component_of_WINDS"},"data":[0,0,0,0,0,0,0,0,0,0,0,0,0,0,0,0,0,0,0,0,0,0,0,0,0,0,0,0,0,0,0,0,0,0,0,0,0,0,0,0,0,0,0,0,0,0,0,0,0,0,0,0,0,0,0,0,0,0,-0.4714,-0.4713,0,-0.4657,-0.4656,-0.4655,-0.4672,-0.4673,-0.4674,-0.4676,-0.4612,-0.4609,-0.4607,0,0,0,0,0,0,0,0,0,0,0,0,0,-0.4832,-0.483,-0.4714,-0.4713,-0.4712,-0.4657,-0.4656,-0.4655,-0.4672,-0.4673,-0.4675,-0.4676,-0.4613,-0.461,-0.4606,0,0,0,0,0,0,0,0,0,0,0,0,0,-0.4778,-0.4829,-0.4714,-0.4714,-0.4713,-0.4657,-0.4656,-0.4655,-0.4671,-0.4673,-0.4675,-0.4677,-0.4614,-0.461,-0.4606,-0.4544,0,0,-0.4593,-0.4591,0,0,0,0,0,0,0,0,-0.4781,-0.4774,-0.4715,-0.4714,-0.4713,-0.4673,-0.4675,-0.4618,-0.4671,-0.4687,-0.4676,-0.4678,-0.4631,-0.4625,-0.4611,-0.4541,-0.4539,-0.4593,-0.459,-0.4588,-0.4587,0,0,0,0,0,0,0,-0.4785,-0.4777,-0.4691,-0.4714,-0.4713,-0.4715,-0.471,-0.4664,-0.4649,-0.4686,-0.4687,-0.468,-0.4631,-0.4615,-0.4609,-0.4538,-0.4593,-0.4589,-0.4587,-0.4585,-0.4416,-0.4414,0,0,0,0,0,0,-0.479,-0.478,-0.4693,-0.4689,-0.4753,-0.4712,-0.4706,-0.4684,-0.465,-0.4647,-0.4679,-0.4681,-0.4621,-0.4614,-0.4607,-0.4533,-0.4589,-0.4585,-0.4582,-0.4417,-0.4415,-0.4413,0,0,0,0,0,0,-0.4793,-0.4782,-0.4695,-0.4735,-0.4724,-0.4708,-0.4684,-0.4682,-0.4666,-0.4645,-0.4642,-0.4665,-0.4622,-0.4613,-0.456,-0.4531,-0.4583,-0.4579,-0.442,-0.4417,-0.4414,-0.4384,0,0,0,0,0,0,-0.4796,-0.4783,-0.476,-0.4734,-0.4722,-0.465,-0.4682,-0.468,-0.466,-0.4662,-0.4631,-0.4628,-0.4623,-0.4566,-0.4556,-0.4526,-0.4576,-0.4422,-0.4418,-0.4415,-0.4388,-0.4381,-0.4374,0,0,0,0,0,-0.48,-0.4753,-0.4759,-0.4749,-0.4693,-0.4649,-0.4641,-0.4638,-0.4657,-0.4634,-0.462,-0.4629,-0.4536,-0.4561,-0.4549,-0.4518,-0.4424,-0.442,-0.4415,-0.4391,-0.4382,-0.4375,0,0,0,0,0,0,-0.4774,-0.475,-0.4756,-0.47,-0.4676,-0.4652,-0.4622,-0.4629,-0.4598,-0.4602,-0.4597,-0.459,-0.4536,-0.4522,-0.455,-0.4457,-0.4483,-0.4476,-0.4468,-0.4459,-0.4453,-0.4457,-0.4572,0,0,0,0,0,-0.4762,-0.473,-0.4709,-0.4661,-0.465,-0.4638,-0.4618,-0.4618,-0.4593,-0.4582,-0.4565,-0.4539,-0.4504,-0.4481,-0.4448,-0.4386,-0.4379,-0.4358,-0.4352,-0.4346,-0.434,-0.4306,-0.4297,-0.4398,-0.4398,-0.4398,0,0,-0.4737,-0.4719,-0.4698,-0.4656,-0.4638,-0.4603,-0.4629,-0.4591,-0.4565,-0.4576,-0.4526,-0.4512,-0.4483,-0.4426,-0.4399,-0.4412,-0.4311,-0.4341,-0.4337,-0.4333,-0.4301,-0.4291,-0.4283,-0.4395,-0.4396,-0.4396,0,0,-0.4672,-0.4656,-0.4614,-0.4596,-0.4569,-0.4562,-0.4552,-0.4527,-0.4518,-0.4468,-0.4476,-0.4444,-0.4384,-0.4363,-0.4345,-0.4273,-0.428,-0.4262,-0.4227,-0.4194,-0.4187,-0.4179,-0.4154,-0.4145,-0.4256,-0.4256,-0.4256,0,-0.4643,-0.4592,-0.4592,-0.4553,-0.4534,-0.4545,-0.4502,-0.4484,-0.4446,-0.4432,-0.4447,-0.4373,-0.4354,-0.4292,-0.4274,-0.4259,-0.4247,-0.4265,-0.4188,-0.4181,-0.4174,-0.415,-0.414,-0.4254,-0.4254,-0.4255,-0.4255,0,-0.4558,-0.4523,-0.4492,-0.4458,-0.4435,-0.4394,-0.4386,-0.4363,-0.4365,-0.4355,-0.4304,-0.4282,-0.4245,-0.423,-0.423,-0.4168,-0.4176,-0.419,-0.4216,-0.4163,-0.4139,-0.413,-0.4251,-0.4252,-0.4253,-0.4253,0,0,-0.4475,-0.4442,-0.4431,-0.4416,-0.4387,-0.4359,-0.4319,-0.4284,-0.4264,-0.4238,-0.4203,-0.4153,-0.4165,-0.4144,-0.4142,-0.4114,-0.4058,-0.413,-0.4129,-0.4117,-0.3988,-0.3978,-0.3967,-0.4063,-0.4061,-0.406,-0.399,0,-0.4408,-0.4339,-0.4337,-0.4273,-0.424,-0.425,-0.4215,-0.4193,-0.4183,-0.4153,-0.4142,-0.4106,-0.4125,-0.4113,-0.4085,-0.4071,-0.4032,-0.4076,-0.403,-0.4028,-0.4037,-0.3955,-0.3944,-0.388,-0.3981,-0.398,-0.3979,0,-0.432,-0.4294,-0.4227,-0.4204,-0.419,-0.4159,-0.4127,-0.4098,-0.4073,-0.4068,-0.4045,-0.4048,-0.4005,-0.4033,-0.3974,-0.4004,-0.3985,-0.3976,-0.3973,-0.3968,-0.4,-0.3948,-0.3859,-0.3849,-0.3964,-0.3966,-0.3967,0,-0.4266,-0.4214,-0.4167,-0.4154,-0.4126,-0.4103,-0.409,-0.4067,-0.4047,-0.4018,-0.4005,-0.3971,-0.3952,-0.3926,-0.3919,-0.394,-0.386,-0.3887,-0.3854,-0.3854,-0.3836,-0.3837,-0.3743,-0.3824,-0.3824,-0.3824,-0.3824,0,-0.4192,-0.415,-0.4143,-0.4114,-0.4068,-0.4066,-0.402,-0.4008,-0.3988,-0.3956,-0.3962,-0.3932,-0.3925,-0.3893,-0.3887,-0.3839,-0.383,-0.3824,-0.3823,-0.3823,-0.3824,-0.381,-0.3815,-0.3822,-0.3822,-0.3823,-0.3823,0,-0.4123,-0.4117,-0.4067,-0.4045,-0.4038,-0.4005,-0.3986,-0.3957,-0.3949,-0.3909,-0.3899,-0.3885,-0.3848,-0.3839,-0.3794,-0.379,-0.3733,-0.3736,-0.3742,-0.3742,-0.3709,-0.3712,-0.3602,-0.3587,-0.3679,-0.3678,-0.3677,0,-0.4076,-0.4045,-0.402,-0.4,-0.3987,-0.3954,-0.3934,-0.393,-0.3909,-0.3878,-0.3853,-0.3817,-0.3788,-0.3728,-0.3713,-0.3679,-0.3681,-0.3645,-0.3676,-0.3677,-0.368,-0.3682,-0.3679,-0.3639,-0.3638,-0.3637,-0.3636,0,-0.3993,-0.3991,-0.3962,-0.3932,-0.3908,-0.3884,-0.386,-0.3843,-0.3837,-0.3811,-0.3775,-0.3752,-0.3707,-0.3671,-0.3637,-0.3622,-0.3627,-0.3627,-0.3617,-0.3617,-0.3622,-0.3619,-0.3726,-0.3629,-0.363,-0.363,-0.3631,-0.3631,-0.3933,-0.3906,-0.3885,-0.3852,-0.3835,-0.3813,-0.3786,-0.3775,-0.3744,-0.3709,-0.3708,-0.3668,-0.3644,-0.3598,-0.3582,-0.3549,-0.356,-0.3546,-0.3542,-0.3539,-0.3536,-0.3628,-0.3543,-0.3543,-0.3543,-0.3543,-0.3543,0,-0.385,-0.3837,-0.3807,-0.3776,-0.375,-0.376,-0.3734,-0.3712,-0.3677,-0.3654,-0.3626,-0.3584,-0.3549,-0.3531,-0.3497,-0.3474,-0.3476,-0.3465,-0.3466,-0.3462,-0.3528,-0.354,-0.3464,-0.3464,-0.3464,-0.3464,-0.3464,-0.3464,-0.3804,-0.3758,-0.3754,-0.37,-0.3687,-0.3649,-0.3634,-0.3614,-0.3596,-0.3549,-0.352,-0.351,-0.3489,-0.3453,-0.3421,-0.3417,-0.3404,-0.3391,-0.3388,-0.345,-0.3458,-0.3465,-0.3477,-0.3389,-0.3389,-0.3326,-0.3325,-0.3325]},{"header":{"parameterUnit":"m.s-1","parameterCategory":1,"la1":30.2991,"la2":30.254,"lo1":-89.0895,"lo2":-89.0444,"dy":0.0017,"dx":0.0017,"nx":28,"ny":28,"refTime":"2023-09-14T03:00:00:Z","depth":0,"parameterNumber":3,"parameterNumberName":"V-component_of_WINDS"},"data":[0,0,0,0,0,0,0,0,0,0,0,0,0,0,0,0,0,0,0,0,0,0,0,0,0,0,0,0,0,0,0,0,0,0,0,0,0,0,0,0,0,0,0,0,0,0,0,0,0,0,0,0,0,0,0,0,0,0,-0.0565,-0.0564,0,-0.0517,-0.0516,-0.0516,-0.0561,-0.0563,-0.0565,-0.0567,-0.0513,-0.051,-0.0507,0,0,0,0,0,0,0,0,0,0,0,0,0,-0.0693,-0.069,-0.0565,-0.0564,-0.0564,-0.0517,-0.0516,-0.0516,-0.0561,-0.0563,-0.0565,-0.0568,-0.0514,-0.0511,-0.0507,0,0,0,0,0,0,0,0,0,0,0,0,0,-0.064,-0.0689,-0.0565,-0.0581,-0.0582,-0.0517,-0.0516,-0.0515,-0.0561,-0.0563,-0.0566,-0.0569,-0.0516,-0.0511,-0.0506,-0.0423,0,0,-0.0492,-0.049,0,0,0,0,0,0,0,0,-0.0643,-0.0635,-0.0579,-0.058,-0.058,-0.0548,-0.0542,-0.0484,-0.056,-0.0568,-0.0567,-0.057,-0.0522,-0.0517,-0.0502,-0.042,-0.0418,-0.0492,-0.0489,-0.0487,-0.0486,0,0,0,0,0,0,0,-0.0647,-0.0638,-0.0546,-0.0578,-0.0579,-0.0589,-0.0585,-0.0531,-0.053,-0.0568,-0.0571,-0.0565,-0.0523,-0.0507,-0.0501,-0.0417,-0.0492,-0.0488,-0.0485,-0.0483,-0.0265,-0.0263,0,0,0,0,0,0,-0.0649,-0.064,-0.0547,-0.0544,-0.0619,-0.0585,-0.058,-0.0556,-0.0531,-0.053,-0.0563,-0.0567,-0.0513,-0.0507,-0.05,-0.0401,-0.0487,-0.0483,-0.048,-0.0268,-0.0265,-0.0262,0,0,0,0,0,0,-0.0652,-0.064,-0.0549,-0.0593,-0.0582,-0.058,-0.0552,-0.0553,-0.0537,-0.0527,-0.0527,-0.0546,-0.0515,-0.0506,-0.0442,-0.0399,-0.048,-0.0476,-0.0272,-0.0267,-0.0263,-0.0202,0,0,0,0,0,0,-0.0655,-0.0641,-0.0609,-0.0592,-0.058,-0.0493,-0.0549,-0.055,-0.0529,-0.0534,-0.0512,-0.051,-0.0517,-0.0449,-0.0437,-0.0394,-0.0472,-0.0276,-0.027,-0.0265,-0.0207,-0.0196,-0.0186,0,0,0,0,0,-0.066,-0.0593,-0.0608,-0.0596,-0.0541,-0.049,-0.0483,-0.0493,-0.0525,-0.0493,-0.0488,-0.0511,-0.0406,-0.0442,-0.0429,-0.0384,-0.0278,-0.0271,-0.0265,-0.0212,-0.0198,-0.0186,0,0,0,0,0,0,-0.0603,-0.0591,-0.0607,-0.0533,-0.0513,-0.0498,-0.0458,-0.0477,-0.0446,-0.0452,-0.0465,-0.0459,-0.0392,-0.0382,-0.0422,-0.0303,-0.0347,-0.0338,-0.0312,-0.0298,-0.0287,-0.0291,-0.0469,0,0,0,0,0,-0.0582,-0.0543,-0.0534,-0.047,-0.0459,-0.046,-0.0439,-0.0448,-0.0427,-0.0418,-0.0408,-0.0385,-0.0348,-0.0322,-0.0287,-0.0207,-0.0203,-0.017,-0.0159,-0.015,-0.0141,-0.0099,-0.0085,-0.024,-0.024,-0.024,0,0,-0.0538,-0.0526,-0.0501,-0.0458,-0.0444,-0.0403,-0.0452,-0.0406,-0.0376,-0.0411,-0.035,-0.0342,-0.0318,-0.0246,-0.0213,-0.0235,-0.0098,-0.0141,-0.0134,-0.013,-0.0091,-0.0076,-0.0063,-0.0235,-0.0236,-0.0237,0,0,-0.0437,-0.0424,-0.037,-0.0355,-0.0333,-0.0335,-0.0322,-0.0305,-0.0301,-0.0241,-0.0267,-0.0231,-0.0165,-0.0147,-0.013,-0.0024,-0.0045,-0.0013,0.0045,0.0086,0.0098,0.0109,0.0146,0.016,-0.0004,-0.0004,-0.0004,0,-0.0384,-0.0324,-0.0339,-0.0292,-0.0272,-0.0304,-0.0249,-0.0233,-0.02,-0.0186,-0.0212,-0.0131,-0.0117,-0.0042,-0.0017,-0.0001,0.0013,-0.0015,0.0098,0.0108,0.0118,0.0153,0.0168,-0.0,-0.0001,-0.0001,-0.0001,0,-0.0261,-0.0219,-0.0178,-0.0148,-0.0124,-0.0072,-0.0079,-0.0053,-0.0065,-0.0064,-0.0003,0.0012,0.005,0.0067,0.0056,0.014,0.0126,0.0099,0.0054,0.0137,0.017,0.0183,0.0005,0.0004,0.0003,0.0002,0,0,-0.012,-0.0101,-0.0086,-0.0073,-0.0052,-0.002,0.0029,0.0064,0.0086,0.011,0.0151,0.0205,0.018,0.02,0.0191,0.0227,0.0308,0.0196,0.0196,0.0216,0.0401,0.0421,0.0437,0.0294,0.0297,0.0299,0.0399,0,-0.0019,0.0065,0.0052,0.0134,0.0172,0.0141,0.0183,0.0201,0.0203,0.0236,0.0238,0.0277,0.0241,0.0253,0.0287,0.0291,0.0346,0.0284,0.0333,0.0335,0.0329,0.0455,0.0477,0.0571,0.0412,0.0414,0.0416,0,0.0111,0.0137,0.0221,0.0234,0.025,0.0288,0.0318,0.035,0.0369,0.0367,0.0388,0.0372,0.0421,0.0374,0.0442,0.0401,0.042,0.0425,0.0428,0.0433,0.0381,0.0463,0.06,0.0615,0.0436,0.0434,0.0433,0,0.0205,0.0261,0.0318,0.033,0.0346,0.0374,0.0382,0.0398,0.0419,0.0445,0.0459,0.0491,0.0509,0.0534,0.0527,0.0494,0.0596,0.0549,0.0597,0.0597,0.0621,0.062,0.0764,0.0633,0.0633,0.0632,0.0632,0,0.032,0.0373,0.036,0.0395,0.0453,0.0438,0.0497,0.0501,0.0515,0.0551,0.0527,0.0561,0.0549,0.0583,0.0578,0.0635,0.0643,0.0644,0.0642,0.0646,0.0646,0.066,0.0653,0.0636,0.0635,0.0635,0.0634,0,0.0435,0.0428,0.0489,0.0498,0.0502,0.0544,0.0553,0.0586,0.0585,0.0631,0.0641,0.0639,0.0678,0.0672,0.0716,0.0712,0.0783,0.0773,0.0776,0.0774,0.0822,0.0818,0.098,0.1001,0.0856,0.0857,0.0858,0,0.0509,0.0549,0.0562,0.0583,0.0593,0.0628,0.0648,0.0635,0.0657,0.068,0.0711,0.0747,0.0775,0.0838,0.0841,0.0874,0.0865,0.0919,0.087,0.0872,0.0866,0.0864,0.0867,0.093,0.0931,0.0932,0.0934,0,0.0642,0.0635,0.0665,0.0693,0.0718,0.074,0.076,0.0779,0.0767,0.0793,0.0831,0.0853,0.0895,0.0931,0.0962,0.0971,0.0951,0.0949,0.0961,0.0967,0.0967,0.0968,0.0803,0.0945,0.0944,0.0943,0.0943,0.0942,0.0739,0.0772,0.0785,0.0819,0.0831,0.085,0.0881,0.0882,0.0913,0.0946,0.0936,0.0979,0.0996,0.1034,0.1046,0.108,0.106,0.1079,0.1084,0.1089,0.1094,0.0961,0.1085,0.1085,0.1085,0.1084,0.1084,0,0.087,0.0876,0.0907,0.0934,0.096,0.0936,0.0956,0.098,0.1017,0.1034,0.1061,0.1104,0.1138,0.1143,0.1175,0.1201,0.1193,0.1211,0.1209,0.1211,0.111,0.1096,0.1217,0.1217,0.1217,0.1217,0.1217,0.1217,0.0941,0.0995,0.0991,0.1051,0.1057,0.1098,0.1111,0.1128,0.1141,0.1189,0.1217,0.1219,0.1231,0.1263,0.1293,0.1294,0.1307,0.1329,0.1326,0.1232,0.1219,0.1206,0.1192,0.1332,0.1332,0.1424,0.1425,0.1425]}]]